Wind_Speed
13 14 14 15 16 14 12 10 9 9 8 8 8 7 7 7 7 7 7 7 7 7 7 7 7 7 6 5 5 4 4 4 4 4 4 5 5 6 6 6 7 7 7 7 7 6 6 5 5
14 13 14 16 15 11 10 9 9 9 9 9 8 8 8 8 8 8 8 8 8 7 7 8 7 7 7 6 5 4 4 4 4 4 4 4 4 5 6 6 6 6 6 6 6 6 6 5 4
14 13 15 15 13 10 9 10 9 9 8 9 9 8 8 8 8 7 7 8 8 7 7 8 7 7 6 6 5 4 4 4 4 4 4 4 4 4 5 4 5 5 5 5 5 5 5 5 4
13 15 16 15 12 9 9 10 9 8 8 8 8 8 8 8 8 7 8 8 8 8 8 7 7 6 6 6 5 4 4 4 3 3 3 3 3 3 3 3 4 4 5 5 4 5 5 5 4
14 16 15 13 10 9 9 9 9 8 8 8 9 8 8 8 8 7 8 8 8 8 8 7 7 6 6 6 5 4 4 3 3 2 2 2 2 2 2 2 3 4 4 4 5 5 5 5 5
14 15 13 10 9 9 9 9 9 9 8 8 8 9 8 8 8 7 7 7 7 7 7 7 6 6 6 6 5 5 4 3 3 2 2 2 2 1 1 1 2 3 4 5 5 5 6 6 5
14 12 11 8 7 8 9 9 9 8 9 9 8 8 8 8 8 8 7 6 7 7 6 6 6 6 6 6 6 5 5 4 3 3 2 1 1 1 0 1 1 3 4 5 5 5 5 5 5
12 11 11 7 7 7 8 8 8 8 9 8 8 8 8 9 9 9 8 7 6 6 6 6 6 5 5 6 6 6 6 5 4 4 2 2 1 1 0 1 1 2 3 4 5 6 6 5 5
8 10 10 7 6 7 8 8 8 8 8 8 9 9 9 9 10 10 9 7 7 7 7 6 6 6 6 6 6 7 7 6 6 5 3 2 2 2 2 2 2 1 2 3 5 5 6 5 6
6 8 7 6 5 6 7 8 8 8 8 9 9 9 9 10 10 10 9 8 7 7 7 7 7 7 6 7 6 7 7 7 7 6 5 4 3 3 3 3 2 2 3 3 4 4 5 6 7
4 5 4 3 4 6 6 6 7 7 7 8 9 9 9 9 10 10 9 7 7 7 7 7 7 7 7 7 7 7 7 7 7 7 6 4 4 4 4 3 3 3 4 4 4 4 5 6 7
3 2 2 3 4 5 6 6 7 7 7 8 8 8 8 9 9 9 8 7 7 7 6 6 7 7 8 7 7 7 7 7 7 7 6 5 5 5 4 5 4 4 5 5 5 5 6 6 6
3 2 1 3 4 4 6 7 6 7 7 7 8 9 9 9 9 9 7 7 7 7 6 6 7 7 7 8 8 8 7 7 8 8 7 7 6 6 5 5 6 6 6 7 6 6 6 7 7
3 1 1 2 4 4 5 5 5 5 6 7 8 9 9 10 9 9 8 7 7 7 6 6 6 6 7 8 8 8 7 7 8 8 8 8 8 7 7 6 7 7 7 8 7 7 7 7 8
6 3 1 1 4 5 4 5 6 5 6 7 8 9 10 9 9 9 8 7 7 6 6 6 6 7 7 7 7 8 8 7 7 7 8 8 8 8 8 8 8 8 8 8 8 8 8 8 8
5 4 3 3 5 7 6 6 7 7 8 8 8 9 9 9 9 9 9 7 6 6 6 6 6 7 7 7 8 9 8 8 7 8 8 8 9 9 9 9 10 10 9 9 9 9 10 9 9
4 5 5 4 5 6 7 7 8 8 9 9 8 8 9 9 10 9 8 8 8 7 7 7 7 7 8 8 9 10 9 9 9 10 9 9 10 11 11 10 10 10 10 10 10 10 10 10 11
4 5 5 6 7 7 6 7 7 9 10 11 10 9 9 9 9 9 8 8 9 9 9 8 8 8 9 9 10 11 11 10 11 11 11 11 11 12 12 11 11 11 11 11 10 10 11 11 12
6 6 7 7 8 8 8 9 8 8 9 11 11 9 9 8 8 8 9 9 9 10 10 9 9 9 10 10 11 11 11 11 11 11 12 12 13 12 12 12 12 11 11 12 12 12 12 13 12
6 8 9 10 9 9 9 11 11 9 10 10 10 10 9 9 9 9 9 10 10 10 10 10 10 10 11 11 12 12 12 12 13 13 13 14 14 14 14 13 12 12 12 13 13 13 13 13 13
10 10 11 11 11 10 10 11 12 9 9 10 10 10 10 10 9 9 10 10 11 10 10 11 11 11 11 12 12 13 13 13 13 13 14 14 15 15 15 14 14 13 13 13 13 13 13 14 15
13 11 11 11 11 12 11 13 13 12 11 12 12 12 11 10 10 10 10 10 11 11 11 11 11 11 11 12 12 13 14 14 14 14 15 16 17 18 17 16 15 14 14 14 14 14 14 15 16
13 12 12 12 13 13 13 14 15 12 13 13 13 14 12 11 10 11 11 11 11 11 12 12 12 12 12 13 13 14 15 15 15 16 16 17 18 18 18 17 17 16 15 15 15 15 16 16 16
14 13 14 14 14 14 13 12 13 13 14 15 15 14 13 12 12 13 13 13 13 13 13 13 13 13 13 13 14 15 16 16 17 17 17 18 19 19 19 18 18 17 16 16 16 16 17 18 18
15 14 15 14 13 12 10 13 15 15 15 17 15 13 14 14 14 14 14 14 14 14 14 14 15 15 15 15 16 16 17 17 18 18 19 19 19 20 19 19 19 18 17 17 17 18 18 19 19
16 15 15 15 14 14 13 14 14 16 16 16 15 15 16 15 15 15 15 15 15 15 15 16 16 17 16 17 17 18 18 19 19 20 20 20 20 20 20 19 18 18 18 18 18 19 19 20 20
16 17 15 16 16 17 16 15 17 16 16 16 17 17 16 15 15 15 15 16 16 16 16 16 17 17 17 17 18 19 20 21 21 21 21 21 21 21 21 20 20 20 19 19 20 20 21 21 20
17 17 16 16 18 18 17 18 19 17 15 17 18 17 16 16 15 16 17 17 17 18 18 18 18 18 18 18 19 20 21 22 22 22 22 22 22 22 22 21 21 20 20 21 20 21 22 22 21
17 16 16 17 17 17 19 18 18 20 19 20 19 19 18 18 18 18 18 19 19 19 19 19 19 19 19 20 21 22 22 22 22 22 23 23 23 23 23 22 22 21 21 21 21 22 23 23 22
20 19 19 19 19 19 20 20 20 21 21 20 18 19 19 19 19 19 19 20 20 21 20 20 21 21 21 21 22 23 23 23 23 23 23 23 23 24 23 24 22 21 22 22 23 23 23 23 23
Wind_Direction
83 85 85 79 69 63 67 68 62 65 62 60 60 66 68 75 80 78 76 76 75 72 71 70 71 73 76 84 86 94 100 97 100 111 121 133 142 149 153 148 148 152 156 160 162 162 159 158 160
85 86 83 74 66 60 59 63 62 61 60 58 58 61 64 71 76 78 78 75 73 72 71 69 70 71 72 77 81 86 91 87 92 108 117 128 145 156 158 163 157 157 164 167 168 170 172 169 168
86 83 79 72 69 63 60 66 61 57 59 58 61 64 67 67 73 76 76 75 74 72 70 69 67 68 68 70 76 83 84 85 88 106 119 126 141 161 164 163 167 170 175 176 179 181 183 185 186
89 82 71 67 66 58 60 64 62 57 53 56 61 64 69 66 69 71 73 75 73 72 68 67 65 64 64 65 66 69 73 80 85 104 126 132 143 163 166 168 177 181 183 182 182 186 190 193 194
91 77 70 65 59 59 57 58 54 54 49 54 61 65 65 65 66 66 69 74 72 69 67 64 61 60 64 65 62 62 61 69 85 104 128 145 144 152 177 182 189 191 190 191 192 195 197 199 201
84 81 73 61 51 54 58 59 50 48 51 54 61 60 55 57 58 59 63 70 70 66 64 63 60 58 62 61 55 48 43 45 64 85 93 115 127 123 144 151 181 199 205 202 201 203 206 205 209
88 85 77 61 49 50 54 54 54 55 55 51 54 56 52 52 51 49 52 60 63 61 58 57 61 56 57 54 49 43 37 34 43 46 47 60 71 82 117 187 194 195 204 211 211 210 209 212 218
96 91 82 63 53 52 51 46 46 51 53 51 49 54 50 51 48 43 44 47 51 50 47 49 54 50 50 48 45 41 37 33 25 17 10 12 5 353 293 282 263 220 219 219 226 225 221 229 239
82 79 78 54 45 46 44 36 43 47 53 51 46 45 45 46 43 40 42 45 49 48 45 41 43 48 43 39 41 40 35 33 25 14 9 357 344 337 325 306 303 299 276 254 244 241 238 240 251
73 59 67 55 38 36 37 36 40 40 46 43 38 40 41 40 38 38 43 47 48 46 45 46 43 44 41 37 40 37 29 25 21 15 10 4 354 348 336 328 334 315 297 274 264 266 257 250 258
79 65 57 53 32 25 33 36 32 36 38 40 32 29 32 31 32 34 38 40 40 38 37 39 35 34 34 33 33 29 22 18 16 14 15 11 8 358 340 333 322 315 309 298 280 282 275 263 262
100 76 64 23 16 20 16 24 28 20 24 35 31 22 21 21 22 27 34 34 33 31 28 29 31 29 27 26 22 17 15 14 10 8 10 8 5 1 354 349 339 324 318 317 301 295 292 280 270
154 153 57 355 355 16 17 20 19 15 17 22 20 18 15 13 11 12 19 23 25 26 25 25 27 23 20 19 18 13 9 10 10 7 4 1 359 356 351 345 340 334 328 327 321 305 299 292 281
190 176 129 352 340 1 6 10 12 16 5 8 8 12 11 8 9 6 9 14 18 20 21 18 17 8 6 7 7 5 2 2 4 5 2 358 356 356 350 344 334 330 328 327 322 311 303 299 295
189 211 229 339 330 336 337 337 346 345 341 349 354 1 5 1 2 1 1 7 11 12 12 7 2 356 355 356 357 358 0 359 360 359 356 351 345 347 345 342 337 331 323 321 319 311 301 295 295
195 234 279 319 329 328 327 322 329 324 322 330 341 348 353 355 353 351 349 355 359 3 360 352 348 347 347 348 349 351 356 356 355 348 344 343 340 337 332 332 333 328 322 319 318 317 310 300 297
207 225 241 277 311 313 313 314 321 315 313 313 319 325 332 342 345 344 340 346 347 349 348 342 341 342 339 336 338 342 344 344 344 343 339 339 339 337 332 330 327 327 323 320 317 316 311 305 300
233 239 248 263 285 299 307 303 301 306 312 315 317 316 317 329 338 341 338 337 341 342 343 336 333 333 333 333 332 331 332 334 338 339 338 335 333 332 330 329 325 324 322 321 318 314 312 309 305
227 235 242 253 276 288 295 293 290 300 307 311 314 311 313 322 327 327 324 327 331 332 335 334 333 332 331 332 332 332 333 332 331 331 330 329 332 329 327 324 323 322 319 317 315 313 308 304 303
232 240 250 248 259 275 283 281 279 285 293 299 306 307 307 311 316 317 320 321 321 324 327 327 329 329 327 327 327 328 329 330 329 327 327 327 326 324 324 324 321 319 317 316 315 312 310 308 305
233 235 250 256 252 260 268 272 285 287 287 287 296 307 305 306 309 311 314 317 318 321 321 322 322 324 322 324 324 325 326 327 327 325 324 323 321 320 319 318 317 315 312 312 311 309 309 308 305
243 235 247 254 255 262 266 272 280 289 284 290 297 299 300 301 303 308 310 313 315 318 319 320 320 319 318 320 321 321 322 323 323 322 322 322 320 318 317 319 316 311 308 309 310 311 310 309 305
241 241 245 248 246 251 257 259 275 283 283 288 293 295 299 295 299 303 304 306 308 311 315 317 319 318 317 316 317 319 320 320 320 320 322 323 322 319 316 314 315 310 308 308 308 310 310 308 306
237 242 254 255 252 256 257 262 266 275 277 282 287 289 293 294 293 296 299 300 302 305 308 310 313 314 314 313 314 315 317 317 318 318 319 320 320 319 314 310 311 310 307 306 307 307 307 307 306
237 241 254 260 267 269 265 263 264 273 274 277 280 283 286 287 287 288 291 296 298 300 303 306 308 309 308 309 311 312 313 314 316 316 316 317 317 318 315 311 310 313 312 309 307 307 307 307 305
238 241 251 260 267 266 256 256 261 276 281 279 280 282 282 283 286 287 287 291 294 297 299 301 305 305 304 305 306 306 308 311 312 314 314 315 316 316 317 312 311 314 314 310 307 306 306 306 305
238 236 246 258 262 266 261 256 263 269 276 280 285 284 283 282 284 285 285 286 289 293 295 297 300 303 302 301 303 306 308 308 309 310 311 312 313 313 311 309 311 313 313 312 309 308 306 305 304
246 240 241 248 258 263 264 264 268 270 271 277 282 285 283 281 283 285 285 285 287 289 293 295 297 300 303 300 300 304 306 306 306 306 307 308 309 309 307 306 309 311 311 310 309 309 308 304 301
242 244 245 247 251 260 269 265 266 269 268 274 278 282 284 283 281 281 283 284 286 288 290 294 296 300 301 302 300 301 302 303 303 303 304 305 306 307 305 306 307 308 309 309 309 309 308 305 303
245 242 243 249 256 254 263 271 269 271 270 272 274 277 279 280 281 283 283 284 286 287 289 291 294 298 300 302 302 300 300 301 300 300 302 305 305 305 306 308 308 307 307 308 309 308 307 305 303
Height
5897 5896 5896 5896 5896 5897 5896 5896 5895 5894 5894 5893 5892 5891 5890 5891 5891 5893 5890 5888 5888 5888 5887 5887 5887 5887 5886 5886 5886 5885 5885 5885 5885 5885 5885 5885 5886 5886 5887 5887 5888 5889 5890 5891 5891 5892 5893 5894 5894
5899 5899 5899 5898 5899 5899 5899 5898 5897 5897 5896 5895 5894 5893 5892 5892 5892 5891 5891 5890 5890 5890 5889 5889 5888 5888 5888 5887 5887 5887 5886 5886 5886 5886 5886 5886 5887 5888 5888 5889 5889 5890 5891 5891 5892 5893 5894 5894 5895
5902 5901 5900 5901 5902 5902 5902 5900 5900 5899 5898 5897 5896 5896 5895 5894 5893 5893 5893 5892 5892 5891 5891 5890 5890 5890 5889 5889 5888 5888 5888 5888 5887 5887 5887 5888 5888 5888 5889 5889 5890 5891 5891 5892 5893 5893 5894 5895 5895
5904 5904 5904 5905 5905 5904 5904 5903 5902 5901 5900 5899 5898 5898 5896 5896 5895 5895 5894 5894 5894 5893 5893 5892 5892 5891 5891 5890 5890 5889 5889 5889 5889 5888 5889 5889 5889 5889 5890 5890 5890 5891 5892 5892 5893 5893 5894 5895 5895
5906 5906 5907 5908 5907 5907 5906 5905 5904 5903 5902 5900 5900 5899 5898 5898 5897 5897 5896 5896 5895 5895 5894 5894 5893 5893 5892 5892 5891 5891 5890 5890 5890 5890 5890 5890 5890 5890 5890 5891 5891 5891 5892 5892 5893 5893 5894 5895 5895
5907 5906 5909 5910 5910 5909 5908 5907 5906 5905 5903 5902 5902 5901 5900 5899 5899 5899 5898 5897 5897 5896 5896 5895 5895 5894 5894 5893 5893 5892 5892 5891 5891 5891 5891 5891 5891 5891 5891 5891 5891 5891 5892 5892 5893 5893 5893 5894 5895
5909 5910 5911 5913 5912 5911 5910 5909 5908 5907 5905 5904 5903 5903 5902 5901 5901 5900 5900 5899 5898 5898 5897 5897 5896 5896 5895 5895 5894 5894 5893 5892 5892 5892 5892 5891 5891 5891 5891 5891 5891 5891 5892 5892 5892 5893 5893 5894 5894
5912 5913 5913 5915 5914 5913 5912 5911 5909 5908 5908 5907 5906 5905 5904 5903 5903 5902 5901 5900 5900 5899 5899 5898 5897 5897 5896 5896 5895 5895 5894 5894 5893 5893 5892 5892 5892 5892 5892 5891 5891 5891 5891 5891 5892 5893 5893 5894 5894
5914 5915 5915 5916 5916 5915 5914 5913 5912 5910 5910 5909 5907 5907 5906 5905 5905 5903 5902 5901 5901 5901 5900 5900 5899 5899 5898 5897 5897 5896 5896 5895 5894 5894 5894 5893 5893 5892 5892 5892 5892 5892 5891 5891 5892 5892 5892 5893 5893
5916 5916 5917 5918 5918 5917 5916 5915 5914 5913 5912 5911 5910 5908 5908 5907 5906 5905 5904 5903 5903 5902 5902 5902 5901 5900 5899 5899 5898 5898 5897 5896 5895 5895 5894 5894 5893 5893 5892 5892 5892 5892 5891 5891 5891 5892 5892 5892 5893
5919 5920 5920 5919 5919 5918 5917 5916 5915 5915 5914 5913 5912 5911 5910 5909 5908 5906 5905 5905 5904 5904 5903 5903 5903 5902 5901 5901 5900 5899 5898 5897 5896 5896 5895 5894 5894 5893 5893 5892 5892 5892 5892 5891 5891 5891 5891 5891 5892
5921 5921 5921 5921 5920 5920 5918 5917 5917 5916 5916 5915 5914 5913 5912 5911 5909 5908 5907 5906 5906 5905 5905 5904 5904 5903 5903 5902 5901 5900 5899 5899 5898 5897 5896 5895 5895 5894 5894 5893 5893 5892 5892 5891 5891 5891 5891 5891 5891
5921 5922 5922 5922 5921 5921 5920 5919 5919 5918 5917 5916 5915 5914 5913 5912 5911 5910 5908 5908 5907 5907 5906 5906 5905 5905 5904 5903 5902 5901 5900 5899 5899 5898 5897 5896 5895 5895 5894 5893 5893 5892 5892 5891 5890 5890 5890 5890 5890
5922 5922 5922 5922 5922 5922 5921 5921 5921 5920 5918 5918 5917 5916 5915 5913 5912 5911 5910 5909 5908 5907 5907 5907 5906 5906 5905 5904 5903 5902 5901 5900 5899 5898 5897 5896 5896 5895 5894 5894 5893 5892 5892 5891 5890 5890 5890 5889 5889
5921 5922 5922 5922 5923 5922 5922 5922 5921 5920 5920 5919 5918 5917 5916 5915 5913 5912 5911 5910 5909 5909 5908 5908 5907 5907 5906 5905 5904 5903 5902 5900 5899 5898 5898 5897 5896 5895 5894 5893 5893 5892 5891 5890 5890 5889 5889 5888 5888
5919 5921 5923 5923 5923 5923 5924 5922 5922 5921 5920 5919 5918 5917 5916 5915 5914 5913 5912 5911 5910 5910 5909 5908 5907 5907 5907 5906 5905 5903 5902 5900 5899 5899 5898 5898 5896 5895 5894 5893 5892 5891 5890 5889 5889 5888 5887 5887 5887
5919 5921 5922 5923 5924 5924 5924 5923 5922 5921 5920 5919 5918 5918 5916 5916 5914 5913 5912 5911 5911 5910 5910 5909 5907 5907 5907 5906 5905 5904 5903 5901 5900 5899 5899 5898 5896 5895 5894 5893 5892 5891 5890 5889 5888 5887 5886 5886 5885
5920 5922 5922 5923 5924 5923 5923 5923 5922 5921 5920 5919 5918 5918 5916 5916 5915 5914 5913 5912 5911 5911 5910 5909 5908 5907 5907 5906 5905 5904 5903 5902 5901 5900 5898 5897 5896 5895 5893 5892 5891 5890 5889 5887 5886 5885 5884 5884 5883
5920 5921 5921 5924 5924 5923 5922 5922 5921 5921 5920 5919 5918 5917 5917 5916 5915 5914 5913 5912 5911 5911 5910 5909 5908 5907 5906 5905 5904 5903 5902 5901 5900 5899 5898 5897 5895 5894 5892 5891 5890 5888 5887 5886 5884 5884 5882 5881 5881
5919 5920 5921 5922 5922 5922 5922 5921 5920 5920 5919 5919 5917 5916 5916 5915 5915 5914 5913 5912 5911 5910 5909 5908 5907 5907 5906 5905 5904 5903 5901 5900 5899 5898 5897 5896 5894 5892 5891 5889 5888 5886 5885 5884 5883 5881 5880 5879 5879
5918 5919 5920 5921 5921 5920 5921 5920 5919 5918 5918 5917 5917 5916 5915 5914 5914 5913 5912 5911 5910 5909 5909 5908 5907 5906 5905 5903 5902 5901 5900 5899 5898 5897 5895 5894 5892 5891 5889 5888 5886 5885 5883 5882 5881 5879 5878 5877 5876
5915 5917 5918 5918 5919 5918 5919 5918 5917 5916 5916 5916 5915 5914 5913 5913 5912 5911 5911 5910 5909 5908 5907 5906 5905 5904 5903 5902 5901 5900 5899 5898 5897 5895 5894 5892 5890 5888 5886 5885 5884 5882 5881 5880 5878 5877 5876 5875 5873
5913 5915 5915 5915 5915 5916 5916 5916 5916 5914 5914 5914 5914 5913 5911 5911 5910 5910 5909 5908 5907 5906 5906 5905 5904 5903 5902 5901 5900 5899 5897 5896 5895 5893 5891 5890 5888 5886 5884 5882 5881 5879 5878 5877 5875 5874 5873 5871 5870
5911 5912 5912 5912 5913 5913 5913 5913 5913 5913 5913 5912 5911 5911 5910 5909 5909 5908 5907 5906 5905 5905 5904 5903 5902 5901 5900 5899 5898 5897 5895 5894 5892 5891 5889 5887 5885 5883 5881 5879 5878 5876 5875 5873 5872 5871 5869 5868 5866
5908 5910 5910 5909 5909 5910 5911 5911 5911 5910 5910 5910 5909 5908 5908 5908 5907 5906 5905 5905 5904 5903 5902 5901 5900 5899 5898 5897 5896 5894 5893 5891 5890 5888 5886 5884 5882 5880 5878 5876 5874 5873 5871 5870 5869 5867 5866 5864 5862
5904 5906 5907 5908 5908 5908 5907 5908 5908 5907 5906 5906 5906 5905 5905 5905 5904 5904 5903 5902 5901 5900 5899 5898 5897 5896 5895 5894 5893 5891 5889 5888 5886 5884 5882 5881 5879 5877 5874 5872 5871 5869 5868 5866 5865 5863 5862 5860 5858
5901 5902 5905 5906 5906 5905 5905 5905 5903 5902 5903 5903 5903 5902 5902 5901 5901 5900 5900 5899 5898 5897 5896 5895 5895 5893 5892 5891 5889 5888 5886 5884 5883 5881 5879 5877 5875 5873 5871 5869 5867 5866 5864 5862 5861 5859 5857 5855 5853
5897 5899 5901 5902 5902 5902 5902 5901 5900 5900 5900 5901 5900 5898 5898 5899 5898 5897 5896 5896 5895 5894 5893 5892 5891 5890 5889 5887 5886 5884 5883 5881 5879 5877 5875 5873 5871 5869 5867 5865 5863 5862 5860 5858 5856 5854 5852 5850 5848
5894 5895 5896 5898 5898 5899 5897 5897 5896 5896 5896 5895 5896 5895 5895 5895 5895 5894 5893 5892 5891 5890 5889 5889 5887 5886 5885 5883 5882 5880 5879 5877 5875 5873 5870 5868 5867 5865 5863 5861 5859 5857 5856 5854 5851 5849 5847 5845 5843
5889 5891 5892 5894 5894 5894 5894 5895 5892 5891 5891 5890 5890 5890 5891 5891 5890 5889 5888 5887 5886 5886 5885 5884 5883 5882 5881 5879 5878 5876 5874 5872 5870 5868 5866 5864 5862 5860 5858 5856 5855 5853 5851 5849 5846 5844 5842 5840 5838